Aérodrome :
LOGIN :

S'inscrire | Disclaimer

   EN    FR    IT 

 










Légende :    VFR   VFR Marginal   IFR   IFR Intensif   IFR Très Intensif
Visi : 
Plafond : 
>= 8 km
>= 3000ft
5 à 8 km
1000 à 3000 ft
1500m à 5 km
500 à 1000 ft
800 à 1500m
200 à 500 ft
< 800m
< 200 ft
Symboles :   Orages  Brouillard  Fortes neiges  Fortes précipitations  Vent > 20 kt
SIGMETs :   Divers  Orages  Givrage  Turbulence  Onde Orograph.  Cendres Volcan.






- Altitude de l'aérodrome : 70 ft
- Code IATA : WBG


ETNS - Schleswig

DERNIER METAR :
  • 170020Z AUTO 17004KT //// // ////// 13/12 Q1008 ///

METARs EXPIRÉS :
  • 162320Z AUTO 16004KT //// // ////// 12/12 Q1008 ///
  • 162220Z AUTO 16006KT //// // ////// 12/11 Q1008 ///
  • 162120Z AUTO 16006KT //// // ////// 12/12 Q1008 ///
  • 162020Z AUTO 14004KT //// // ////// 13/12 Q1007 ///

Prévision TAF périmée.



MET'MAP, la Météo Aéronautique d'un coup d'oeil ! - Copyright ORBIFLY Décembre 2007 - Disclaimer

ORBIFLY MET'MAP TEAM :

Programmation & Développement : Alexandra Zaïnal
Sur une idée originale de : Baudouin d'Aumeries
Soutien technique & logistique : Manuel Goepfert
Assistance : Marc-Olivier Méhu




SOURCES & CREDITS :

   NOAA